WA2GUG Weather Reports


Display with metric or nautical units.
time (UTC)temp
F
wind
direction
speed
MPH
gust
MPH
rain 1hr
in
rain 24hr
in
rain mn
in
humidity
%
barometer
mb
20180919034106 65 0.0 2.0 0.00 0.00 0.00 99 1010.0
20180919033606 66 22 0.0 2.0 0.00 0.00 0.00 99 1010.0
20180919033106 66 285 0.0 1.0 0.00 0.00 0.00 99 1010.0
20180919032606 66 345 0.0 1.0 0.00 0.00 0.00 99 1010.0
20180919032105 66 90 0.0 99.0 0.00 0.00 0.00 1010.0
20180919031606 66 22 99.0 99.0 0.00 0.00 0.00 1010.0
20180919031105 66 22 0.0 1.0 0.00 0.00 0.00 99 1010.0
20180919030606 66 292 0.0 1.0 0.00 0.00 0.00 1010.0
20180919030105 66 0.0 1.0 0.00 0.00 0.00 99 1010.0
20180919025606 66 157 0.0 1.0 0.00 0.00 0.00 99 1010.0
20180919025105 66 0.0 1.0 0.00 0.00 0.00 1010.0
20180919024605 66 60 0.0 1.0 0.00 0.00 0.00 1010.0
20180919024105 66 0.0 2.0 0.00 0.00 0.00 1010.0
20180919023605 66 67 0.0 2.0 0.00 0.00 0.00 99 1010.0
20180919023105 66 1.0 2.0 0.00 0.00 0.00 99 1010.0
20180919022606 66 337 1.0 2.0 0.00 0.00 0.00 99 1010.0
20180919022106 66 0.0 1.0 0.00 0.00 0.00 1010.0
20180919021605 66 292 0.0 0.0 0.00 0.00 0.00 99 1009.0
20180919021105 66 315 0.0 0.0 0.00 0.00 0.00 99 1010.0
20180919020606 66 337 0.0 0.0 0.00 0.00 0.00 1009.0
20180919020105 66 337 0.0 0.0 0.00 0.00 0.00 1010.0
20180919015605 66 303 0.0 0.0 0.00 0.00 0.00 1010.0
20180919015105 66 0.0 0.0 0.00 0.00 0.00 99 1010.0
20180919014605 66 315 0.0 0.0 0.00 0.00 0.00 99 1010.0
20180919014105 66 11 0.0 0.0 0.00 0.00 0.00 99 1010.0
20180919013605 66 0 0.0 0.0 0.00 0.00 0.00 99 1010.0
20180919013105 66 337 0.0 0.0 0.00 0.00 0.00 99 1010.0
20180919012606 67 337 0.0 0.0 0.00 0.00 0.00 99 1010.0
20180919012106 67 0 0.0 0.0 0.00 0.00 0.00 99 1010.0
20180919011605 67 337 0.0 0.0 0.00 0.00 0.00 1010.0
20180919011106 67 0.0 0.0 0.00 0.00 0.00 99 1010.0
20180919010606 67 315 0.0 0.0 0.00 0.00 0.00 99 1009.0
20180919010106 67 0.0 0.0 0.00 0.00 0.00 99 1008.0
20180919005606 67 292 0.0 0.0 0.00 0.00 0.00 99 1010.0
20180919005105 68 45 0.0 0.0 0.00 0.00 0.00 99 1010.0
20180919004605 68 292 0.0 0.0 0.00 0.00 0.00 99 1010.0
20180919004105 68 303 0.0 0.0 0.00 0.00 0.00 1009.0
20180919003605 68 292 0.0 0.0 0.00 0.00 0.00 99 1244.0
20180919003106 68 337 0.0 0.0 0.00 0.00 0.00 99 1006.0
20180919002606 68 292 0.0 0.0 0.00 0.00 0.00 99 1009.0
20180919002105 69 0 0.0 0.0 0.00 0.00 0.00 99 1009.0
20180919001605 69 0 0.0 0.0 0.00 0.00 0.00 99 1010.0
20180919001106 69 292 0.0 0.0 0.00 0.00 0.00 99 1009.0
20180919000605 69 292 0.0 0.0 0.00 0.00 0.00 99 1010.0
20180919000105 69 292 0.0 0.0 0.00 0.00 0.00 99 1010.0
20180918235605 70 337 0.0 0.0 0.00 0.00 0.00 99 1010.0
20180918235105 70 315 0.0 0.0 0.00 0.00 0.00 1010.0
20180918234605 70 337 0.0 0.0 0.00 0.00 0.00 99 1010.0
20180918234105 71 0.0 0.0 0.00 0.00 0.00 1009.0
20180918233605 71 37 0.0 0.0 0.00 0.00 0.00 1009.0
20180918233105 71 52 0.0 0.0 0.00 0.00 0.00 99 1010.0
20180918232606 71 0 0.0 0.0 0.00 0.00 0.00 1010.0
20180918232105 72 337 0.0 0.0 0.00 0.00 0.00 99 1009.0
20180918231605 72 0 0.0 0.0 0.00 0.00 0.00 1013.0
20180918231105 73 292 0.0 0.0 0.00 0.00 0.00 99 1010.0
20180918230605 73 326 0.0 0.0 0.00 0.00 0.00 83 1010.0
20180918230106 74 67 0.0 0.0 0.00 0.00 0.00 99 1009.1
20180918225605 74 337 0.0 0.0 0.00 0.00 0.00 99 1010.0
20180918225105 74 322 0.0 0.0 0.00 0.00 0.00 99 1010.0
20180918224605 75 275 0.0 0.0 0.00 0.00 0.00 99 1010.0
20180918224105 76 292 0.0 0.0 0.00 0.00 0.00 99 1010.0
20180918223605 77 292 0.0 0.0 0.00 0.00 0.00 99 1009.0
20180918223106 79 292 0.0 0.0 0.00 0.00 0.00 97 1009.0
20180918222606 81 0.0 0.0 0.00 0.00 0.00 93 1009.0
20180918222105 83 322 0.0 0.0 0.00 0.00 0.00 94 1009.0
20180918221605 84 0.0 99.0 0.00 0.00 0.00 90 1009.0
20180918221106 87 75 99.0 99.0 0.00 0.00 0.00 1009.0
20180918220605 92 28 0.0 0.0 0.00 0.00 0.00 72 1009.0
20180918220105 96 326 0.0 99.0 0.00 0.00 0.00 99 1008.0
20180918215606 98 0 99.0 99.0 0.00 0.00 0.00 99 1009.0
20180918215105 98 277 0.0 1.0 0.00 0.00 0.00 69 1009.0
20180918214605 99 322 0.0 99.0 0.00 0.00 0.00 79 1009.0
20180918214105 99 281 299.0 99.0 0.00 0.00 0.00 68 1009.0
20180918213605 99 247 1.0 2.0 0.00 0.00 0.00 1009.0
20180918213105 97 303 0.0 3.0 0.00 0.00 0.00 1009.0
20180918212605 100 322 1.0 3.0 0.00 0.00 0.00 1009.0
20180918212105 0 225 1.0 2.0 0.00 0.00 0.00 1008.1
20180918211605 0 337 1.0 2.0 0.00 0.00 0.00 1009.0
20180918211105 101 78 1.0 99.0 0.00 0.00 0.00 1009.0
20180918210605 100 292 6.0 99.0 0.00 0.00 0.00 1009.0
20180918210105 99 180 1.0 4.0 0.00 0.00 0.00 1009.0
20180918205605 101 247 1.0 4.0 0.00 0.00 0.00 1009.0
20180918205105 102 300 1.0 3.0 0.00 0.00 0.00 1008.1
20180918204605 102 303 1.0 3.0 0.00 0.00 0.00 1009.0
20180918204105 102 225 1.0 3.0 0.00 0.00 0.00 1008.1
20180918203605 103 292 1.0 2.0 0.00 0.00 0.00 1008.0
20180918203106 103 281 1.0 99.0 0.00 0.00 0.00 1008.0
20180918202605 100 255 20.0 99.0 0.00 0.00 0.00 82 1009.0
20180918202105 100 292 2.0 5.0 0.00 0.00 0.00 82 1008.0
20180918201605 100 337 2.0 5.0 0.00 0.00 0.00 1009.0
20180918201105 101 337 2.0 3.0 0.00 0.00 0.00 88 1009.0
20180918200605 101 337 2.0 5.0 0.00 0.00 0.00 59 1009.0
20180918200105 102 112 1.0 5.0 0.00 0.00 0.00 69 1008.0
20180918195605 103 67 1.0 3.0 0.00 0.00 0.00 65 1009.0
20180918195105 102 315 1.0 5.0 0.00 0.00 0.00 93 1009.0
20180918194605 101 270 2.0 5.0 0.00 0.00 0.00 66 1009.0
20180918194105 101 281 2.0 5.0 0.00 0.00 0.00 89 1008.1
20180918193605 101 1.0 5.0 0.00 0.00 0.00 71 1009.0
20180918193105 101 225 2.0 5.0 0.00 0.00 0.00 86 1009.0
20180918192605 101 45 1.0 4.0 0.00 0.00 0.00 78 1009.0
20180918192105 98 67 2.0 4.0 0.00 0.00 0.00 84 1008.1
20180918191605 99 315 2.0 4.0 0.00 0.00 0.00 81 1009.0
20180918191105 102 0 2.0 4.0 0.00 0.00 0.00 85 1009.0
20180918190605 102 292 1.0 4.0 0.00 0.00 0.00 94 1009.0
20180918190105 101 292 2.0 4.0 0.00 0.00 0.00 77 1009.0
20180918185605 99 315 1.0 3.0 0.00 0.00 0.00 75 1009.0
20180918185105 96 330 1.0 3.0 0.00 0.00 0.00 92 1009.0
20180918184605 99 274 1.0 3.0 0.00 0.00 0.00 83 1009.0
20180918184105 100 247 1.0 4.0 0.00 0.00 0.00 83 1009.0
20180918183605 99 210 1.0 5.0 0.00 0.00 0.00 84 1005.0
20180918183105 97 337 2.0 5.0 0.00 0.00 0.00 74 1008.0
20180918182605 100 247 2.0 5.0 0.00 0.00 0.00 1009.0
20180918182105 100 337 2.0 4.0 0.00 0.00 0.00 76 1008.0
20180918181605 99 67 2.0 4.0 0.00 0.00 0.00 91 1009.0
20180918181105 99 67 1.0 4.0 0.00 0.00 0.00 70 1009.0
20180918180605 97 315 1.0 3.0 0.00 0.00 0.00 99 1009.0
20180918180105 93 225 1.0 2.0 0.00 0.00 0.00 84 1008.0
20180918175605 87 60 0.0 2.0 0.00 0.00 0.00 91 1009.0
20180918175105 83 0.0 2.0 0.00 0.00 0.00 1008.0
20180918174605 84 300 0.0 2.0 0.00 0.00 0.00 1009.0
20180918174105 86 303 0.0 2.0 0.00 0.00 0.00 91 1008.0
20180918173723 89 45 1.0 3.0 0.00 0.00 0.00 54 1008.0
20180918173346 93 277 2.0 3.0 0.00 0.00 0.00 1009.0
20180918172105 92 292 299.0 99.0 0.00 0.00 0.00 81 1009.0
20180918171605 84 288 0.0 3.0 0.00 0.00 0.00 1009.0
20180918171105 84 56 1.0 3.0 0.00 0.00 0.00 1009.0
20180918170605 89 258 1.0 3.0 0.00 0.00 0.00 95 1009.0
20180918170105 83 315 0.0 3.0 0.00 0.00 0.00 97 1009.0
20180918165605 82 319 1.0 3.0 0.00 0.00 0.00 99 1010.0
20180918165105 83 275 2.0 5.0 0.00 0.00 0.00 99 1009.0
20180918164605 88 247 2.0 5.0 0.00 0.00 0.00 92 1010.0
20180918164105 91 2.0 3.0 0.00 0.00 0.00 88 1010.0
20180918163605 92 247 1.0 2.0 0.00 0.00 0.00 99 1010.0
20180918163105 90 292 1.0 4.0 0.00 0.00 0.00 90 1010.0
20180918162605 88 0 2.0 4.0 0.00 0.00 0.00 1010.0
20180918162105 89 101 2.0 4.0 0.00 0.00 0.00 1010.0
20180918161605 88 45 1.0 4.0 0.00 0.00 0.00 73 1010.0
20180918161105 88 292 1.0 3.0 0.00 0.00 0.00 95 1010.0
20180918160605 85 292 1.0 4.0 0.00 0.00 0.00 97 1010.0
20180918160105 85 1.0 99.0 0.00 0.00 0.00 99 1010.0
20180918155605 82 112 199.0 99.0 0.00 0.00 0.00 99 1010.0
20180918155105 82 281 1.0 3.0 0.00 0.00 0.00 99 1009.1
20180918154605 81 180 1.0 3.0 0.00 0.00 0.00 99 1010.0
20180918154105 79 56 0.0 2.0 0.00 0.00 0.00 99 1009.1
20180918153605 78 292 0.0 1.0 0.00 0.00 0.00 99 1010.0
20180918153105 76 22 0.0 1.0 0.00 0.00 0.00 99 1010.0
20180918152605 75 258 0.0 1.0 0.00 0.00 0.00 99 1010.0
20180918152105 74 101 0.0 1.0 0.00 0.00 0.00 99 1010.0
20180918151605 74 22 0.0 1.0 0.00 0.00 0.00 99 1010.0
20180918151105 74 322 0.0 1.0 0.00 0.00 0.00 99 1010.0
20180918150605 73 330 0.0 1.0 0.00 0.00 0.00 99 1010.0
20180918150105 73 0.0 0.0 0.00 0.00 0.00 99 1010.0
20180918145605 72 67 0.0 0.0 0.00 0.00 0.00 99 1010.0
20180918145105 72 247 0.0 0.0 0.00 0.00 0.00 99 1010.0
20180918144605 71 281 0.0 0.0 0.00 0.00 0.00 99 1010.0
20180918144105 70 67 0.0 1.0 0.00 0.00 0.00 99 1009.0
20180918143605 70 292 0.0 1.0 0.00 0.00 0.00 99 1004.0
20180918143105 70 337 0.0 1.0 0.00 0.00 0.00 99 1010.0
20180918142605 69 270 0.0 1.0 0.00 0.00 0.00 99 1006.0
20180918142105 69 0.0 1.0 0.00 0.00 0.00 99 1009.0
20180918141606 69 22 0.0 1.0 0.00 0.00 0.00 99 1010.0
20180918141105 70 337 0.0 0.0 0.00 0.00 0.00 1009.0
20180918140605 69 292 0.0 1.0 0.00 0.00 0.00 99 1010.0
20180918140105 69 0.0 2.0 0.00 0.00 0.00 1010.0
20180918135605 69 22 0.0 2.0 0.00 0.00 0.00 99 1010.0
20180918135105 69 0.0 2.0 0.00 0.00 0.00 79 1007.0
20180918134605 69 337 0.0 2.0 0.00 0.00 0.00 99 1010.0
20180918134105 69 247 1.0 2.0 0.00 0.00 0.00 99 1009.0
20180918133605 69 247 0.0 1.0 0.00 0.00 0.00 99 1010.0
20180918133105 69 0.0 1.0 0.00 0.00 0.00 1009.0
20180918132605 68 56 0.0 2.0 0.00 0.00 0.00 1010.0
20180918132105 68 1.0 3.0 0.00 0.00 0.00 99 1009.0
20180918131605 68 0.0 3.0 0.00 0.00 0.00 99 1010.0
20180918131105 68 0.0 1.0 0.00 0.00 0.00 99 1009.0
20180918130605 67 337 0.0 3.0 0.00 0.00 0.00 99 1010.0
20180918130105 67 1.0 3.0 0.00 0.00 0.00 99 1010.0
20180918125605 67 322 1.0 3.0 0.00 0.00 0.00 99 1009.0
20180918125105 67 292 1.0 3.0 0.00 0.00 0.00 99 1010.0
20180918124605 67 307 1.0 1.0 0.00 0.00 0.00 99 1010.0
20180918124105 67 303 0.0 2.0 0.00 0.00 0.00 99 1010.0
20180918123605 67 315 0.0 2.0 0.00 0.00 0.00 99 1010.0
20180918123105 67 1.0 2.0 0.00 0.00 0.00 99 1009.0
20180918122605 67 330 1.0 99.0 0.00 0.00 0.00 99 1009.0
20180918122105 67 270 299.0 99.0 0.00 0.00 0.00 99 1009.0
20180918121605 67 285 1.0 3.0 0.00 0.00 0.00 99 1010.0
20180918121104 67 337 1.0 2.0 0.00 0.00 0.00 99 1010.0
20180918120605 67 337 1.0 2.0 0.00 0.00 0.00 99 1009.1
20180918120105 68 0.0 99.0 0.00 0.00 0.00 99 1010.0
20180918115104 68 337 0.0 0.0 0.00 0.00 0.00 99 1009.0
20180918114604 67 22 0.0 2.0 0.00 0.00 0.00 99 1009.0
20180918114104 67 22 1.0 99.0 0.00 0.00 0.00 1010.0
20180918113104 67 7 0.0 3.0 0.00 0.00 0.00 99 1009.0
20180918112605 67 315 1.0 3.0 0.00 0.00 0.00 99 1010.0
20180918112104 67 292 0.0 0.0 0.00 0.00 0.00 99 1010.0
20180918111605 67 22 0.0 1.0 0.00 0.00 0.00 99 1010.0
20180918111104 67 322 0.0 1.0 0.00 0.00 0.00 99 1010.0
20180918110604 67 247 0.0 1.0 0.00 0.00 0.00 99 1010.0
20180918110104 67 337 0.0 1.0 0.00 0.00 0.00 99 1009.0
20180918105604 67 0.0 2.0 0.00 0.00 0.00 99 1009.0
20180918105104 67 202 1.0 3.0 0.00 0.00 0.00 1010.0
20180918104604 68 292 1.0 3.0 0.00 0.00 0.00 1010.0
20180918104104 68 337 0.0 2.0 0.00 0.00 0.00 99 1010.0
20180918103604 68 292 0.0 2.0 0.00 0.00 0.00 1010.0
20180918103104 68 330 1.0 3.0 0.00 0.00 0.00 1009.0
20180918102605 68 337 1.0 3.0 0.00 0.00 0.00 1010.0
20180918102104 68 67 0.0 2.0 0.00 0.00 0.00 99 1010.0
20180918101604 68 101 1.0 2.0 0.00 0.00 0.00 99 1009.0
20180918101104 68 292 0.0 3.0 0.00 0.00 0.00 99 1010.0
20180918100604 68 157 0.0 3.0 0.00 0.00 0.00 1010.0
20180918100104 68 0.0 1.0 0.00 0.00 0.00 99 1232.0
20180918095604 68 292 0.0 1.0 0.00 0.00 0.00 1010.0
20180918095104 68 22 0.0 0.0 0.00 0.00 0.00 99 1010.0
20180918094604 68 0.0 1.0 0.00 0.00 0.00 99 1010.0
20180918094104 68 22 0.0 1.0 0.00 0.00 0.00 99 1009.0
20180918093604 68 270 0.0 1.0 0.00 0.00 0.00 99 1010.0
20180918093104 68 225 0.0 1.0 0.00 0.00 0.00 99 1009.0
20180918092605 68 0.0 0.0 0.00 0.00 0.00 99 1009.0
20180918092104 68 0.0 0.0 0.00 0.00 0.00 99 1010.0
20180918091604 68 258 0.0 0.0 0.00 0.00 0.00 99 1010.0
20180918091105 68 0.0 1.0 0.00 0.00 0.00 99 1009.0
20180918090604 68 202 0.0 1.0 0.00 0.00 0.00 1009.0
20180918090105 68 225 0.0 1.0 0.00 0.00 0.00 99 1009.0
20180918085604 68 0 1.0 2.0 0.00 0.00 0.00 99 1010.0
20180918085104 68 45 1.0 2.0 0.00 0.00 0.00 1009.0
20180918084604 68 67 1.0 2.0 0.00 0.00 0.00 1010.0
20180918084104 68 337 0.0 1.0 0.00 0.00 0.00 99 1010.0
20180918083604 68 315 0.0 1.0 0.00 0.00 0.00 99 1010.0
20180918083104 68 45 0.0 1.0 0.00 0.00 0.00 99 1009.0
20180918082604 68 0.0 1.0 0.00 0.00 0.00 99 1010.0
20180918082104 68 22 0.0 1.0 0.00 0.00 0.00 99 1009.0
20180918081604 68 67 1.0 1.0 0.00 0.00 0.00 99 1010.0
20180918081104 68 337 0.0 1.0 0.00 0.00 0.00 99 1010.0
20180918080604 68 315 0.0 1.0 0.00 0.00 0.00 99 1009.0
20180918080104 68 0.0 99.0 0.00 0.00 0.00 1010.0
20180918075604 68 0 99.0 99.0 0.00 0.00 0.00 99 1009.0
20180918074827 68 0.0 3.0 0.00 0.00 0.00 99 1010.0
20180918074327 68 202 1.0 3.0 0.00 0.00 0.00 99 1009.0
20180918073827 68 202 1.0 2.0 0.00 0.00 0.00 1010.0
20180918073327 69 146 0.0 2.0 0.00 0.00 0.00 99 1009.0
20180918072827 68 112 1.0 5.0 0.00 0.00 0.00 99 1010.0
20180918072327 69 22 1.0 5.0 0.00 0.00 0.00 1009.0
20180918071827 69 157 1.0 3.0 0.00 0.00 0.00 99 1010.0
20180918071327 69 180 1.0 2.0 0.00 0.00 0.00 1010.0
20180918070828 69 67 1.0 2.0 0.00 0.00 0.00 99 1010.0
20180918070327 69 1.0 2.0 0.00 0.00 0.00 1010.0
20180918065827 69 247 1.0 2.0 0.00 0.00 0.00 99 1010.0
20180918065327 69 67 1.0 2.0 0.00 0.00 0.00 99 1010.1
20180918064827 69 1.0 2.0 0.00 0.00 0.00 99 1011.0
20180918064327 69 0.0 2.0 0.00 0.00 0.00 99 1010.0
20180918063827 69 90 1.0 2.0 0.00 0.00 0.00 1011.0
20180918063327 69 1.0 3.0 0.00 0.00 0.00 99 1010.0
20180918062827 69 247 1.0 3.0 0.00 0.00 0.00 99 1011.0
20180918062327 70 180 1.0 2.0 0.00 0.00 0.00 1011.0
20180918061827 70 0.0 2.0 0.00 0.00 0.00 99 1011.0
20180918061327 70 247 1.0 2.0 0.00 0.00 0.00 99 1009.0
20180918060827 70 225 1.0 2.0 0.00 0.00 0.00 99 1011.0
20180918060327 70 1.0 2.0 0.00 0.00 0.00 99 1011.0
20180918055827 70 262 1.0 2.0 0.00 0.00 0.00 99 1012.0
20180918055327 70 0 0.0 3.0 0.00 0.00 0.00 99 1011.0
20180918054827 70 292 1.0 3.0 0.00 0.00 0.00 99 1012.0
20180918054327 70 1.0 99.0 0.00 0.00 0.00 99 1011.0
20180918053827 70 270 299.0 99.0 0.00 0.00 0.00 99 1012.0
20180918053327 70 22 0.0 1.0 0.00 0.00 0.00 99 1012.0
20180918052827 70 0.0 1.0 0.00 0.00 0.00 99 1012.0
20180918052327 70 0.0 0.0 0.00 0.00 0.00 99 1012.0
20180918051827 70 0 0.0 0.0 0.00 0.00 0.00 99 1012.0
20180918051327 70 0.0 2.0 0.00 0.00 0.00 99 1012.0
20180918050827 70 352 1.0 2.0 0.00 0.00 0.00 99 1012.0
20180918050327 70 337 0.0 1.0 0.00 0.00 0.00 1011.0
20180918045827 69 292 0.0 1.0 0.00 0.00 0.00 99 1012.0
20180918045327 69 0 0.0 0.0 0.00 0.00 0.00 99 1012.0
20180918044827 69 0 0.0 0.0 0.00 0.00 0.00 99 1011.0
20180918044327 69 0 0.0 0.0 0.00 0.00 0.00 99 1011.0
20180918043827 69 0 0.0 0.0 0.00 0.00 0.00 99 1012.0
20180918043327 69 0 0.0 0.0 0.00 0.00 0.00 1012.0
20180918042827 69 0.0 1.0 0.00 0.00 0.00 1012.0
20180918042327 69 0.0 1.0 0.00 0.00 0.00 99 1012.0
20180918041827 69 0.0 1.0 0.00 0.00 0.00 99 1013.0
20180918041327 69 27 0.0 1.0 0.00 0.00 0.00 99 1013.0
20180918040827 69 0.0 1.0 0.00 0.00 0.00 99 1013.0
20180918040327 69 315 0.0 1.0 0.00 0.00 0.00 99 1012.0
20180918035826 69 337 0.0 3.0 0.00 0.00 0.00 99 1013.0
20180918035327 69 1.0 3.0 0.00 0.00 0.00 99 1013.0
20180918034827 69 90 1.0 3.0 0.00 0.00 0.00 99 1013.0